Date String (YYYY-MM-DD hh:mm:ss) UTC,Instrument flags,absolute air pressure of the measurement (hPa),sample flow rate (lpm),inlet stack bypass flow (lpm),air temperature of the measurement (°C),ambient temperature measured by the external sensor (°C),aerosol sample conditioner tube jacket temperature (°C),OPC LED temperature (°C),internal box temperature (°C),relative humidity of the measurement (%),span deviation,mass concentration of particles derived from Lorenz-Mie calculation of OPC scattering (μg/m³),mass concentration of particles derived from Lorenz-Mie calculation of OPC scattering (μg/m³),mass concentration of particles derived from Lorenz-Mie calculation of OPC scattering (μg/m³)
DateTimeUTC,F1_M11,P_M11,Q1_M11,Q2_M11,T1_M11,T2_M11,T3_M11,T4_M11,T5_M11,U1_M11,ZSPAN_M11,X0_M11,X2_M11,X1_M11
2024-02-01 21:00:00,SystemResetWarning,0822.4,5.00,000.00,025.1,024.2,000.0,033.5,026.9,09.8,0000.0,0007.75,0002.63,0001.97
2024-02-01 21:01:00,SystemResetWarning,0822.4,5.01,000.00,025.2,024.4,000.0,033.5,027.0,09.8,0000.0,0007.00,0002.66,0001.98
2024-02-01 21:02:00,SystemResetWarning,0822.4,5.00,000.00,025.3,024.6,000.0,033.5,027.1,09.7,0000.0,0006.64,0002.67,0001.98
2024-02-01 21:03:00,SystemResetWarning,0822.4,5.00,000.00,025.3,024.7,000.0,033.5,027.2,09.8,0000.0,0007.39,0002.62,0001.97
2024-02-01 21:04:00,SystemResetWarning,0822.4,5.00,000.00,025.4,024.9,000.0,033.6,027.3,09.8,0000.0,0007.17,0002.60,0001.96
2024-02-01 21:05:00,SystemResetWarning,0822.4,5.00,000.00,025.5,025.0,000.0,033.6,027.4,10.0,0000.0,0006.98,0002.58,0001.97
2024-02-01 21:06:00,SystemResetWarning,0822.4,4.99,000.00,025.5,025.1,000.0,033.6,027.4,09.9,0000.0,0007.19,0002.58,0001.98
2024-02-01 21:07:00,SystemResetWarning,0822.4,5.02,000.00,025.6,025.2,000.0,033.7,027.5,10.1,0000.0,0007.12,0002.57,0001.98
2024-02-01 21:08:00,SystemResetWarning,0822.4,5.00,000.00,025.7,025.3,000.0,033.7,027.6,10.1,0000.0,0007.72,0002.58,0001.97
2024-02-01 21:09:00,SystemResetWarning,0822.4,5.00,000.00,025.7,025.4,000.0,033.7,027.7,10.2,0000.0,0007.94,0002.64,0001.98
2024-02-01 21:10:00,SystemResetWarning,0822.4,4.98,000.00,025.8,024.9,000.0,033.8,027.4,09.7,0000.0,0008.15,0002.70,0001.98
2024-02-01 21:11:00,SystemResetWarning,0822.4,5.01,000.00,025.4,023.0,000.0,033.9,026.4,09.9,0000.0,0007.99,0002.65,0001.98
2024-02-01 21:12:00,SystemResetWarning,0822.3,5.02,000.00,025.2,022.7,000.0,033.9,026.1,10.1,0000.0,0007.96,0002.62,0001.96
2024-02-01 21:13:00,SystemResetWarning,0822.3,5.00,000.00,025.1,022.9,000.0,033.8,026.2,10.2,0000.0,0008.03,0002.62,0001.95
2024-02-01 21:14:00,SystemResetWarning,0822.3,4.98,000.00,025.1,023.3,000.0,033.7,026.5,10.2,0000.0,0007.43,0002.69,0001.96
2024-02-01 21:15:00,SystemResetWarning,0822.4,5.00,000.00,025.2,023.7,000.0,033.6,026.7,10.1,0000.0,0006.99,0002.72,0001.97
2024-02-01 21:16:00,SystemResetWarning,0822.4,5.01,000.00,025.2,024.0,000.0,033.6,026.9,10.1,0000.0,0007.47,0002.77,0001.97
2024-02-01 21:17:00,SystemResetWarning,0822.4,5.00,000.00,025.3,024.2,000.0,033.6,027.0,10.0,0000.0,0007.63,0002.79,0001.96
2024-02-01 21:18:00,SystemResetWarning,0822.4,5.00,000.00,025.3,024.5,000.0,033.6,027.1,10.1,0000.0,0007.41,0002.74,0001.95
2024-02-01 21:19:00,SystemResetWarning,0822.4,4.99,000.00,025.4,024.7,000.0,033.6,027.2,09.9,0000.0,0007.73,0002.76,0001.95
2024-02-01 21:20:00,SystemResetWarning,0822.4,5.00,000.00,025.5,024.9,000.0,033.6,027.3,09.8,0000.0,0007.41,0002.79,0001.98
2024-02-01 21:21:00,SystemResetWarning,0822.3,4.99,000.00,025.5,025.0,000.0,033.6,027.4,09.8,0000.0,0007.16,0002.76,0001.99
2024-02-01 21:22:00,SystemResetWarning,0822.4,5.00,000.00,025.6,025.2,000.0,033.7,027.5,09.8,0000.0,0007.22,0002.79,0002.00
2024-02-01 21:23:00,SystemResetWarning,0822.4,5.00,000.00,025.7,025.3,000.0,033.7,027.6,09.9,0000.0,0008.54,0002.83,0002.00
2024-02-01 21:24:00,SystemResetWarning,0822.4,4.98,000.00,025.7,025.4,000.0,033.7,027.6,10.0,0000.0,0009.02,0002.85,0002.01
2024-02-01 21:25:00,SystemResetWarning,0822.4,5.00,000.00,025.8,025.4,000.0,033.8,027.7,09.9,0000.0,0009.62,0002.83,0002.02
2024-02-01 21:26:00,SystemResetWarning,0822.3,5.00,000.00,025.6,023.8,000.0,033.9,026.8,10.0,0000.0,0009.92,0002.84,0002.03
2024-02-01 21:27:00,SystemResetWarning,0822.3,5.02,000.00,025.3,022.6,000.0,033.9,026.2,09.9,0000.0,0010.61,0002.86,0002.03
2024-02-01 21:28:00,SystemResetWarning,0822.3,5.01,000.00,025.1,022.8,000.0,033.8,026.2,10.1,0000.0,0010.36,0002.89,0002.05
2024-02-01 21:29:00,SystemResetWarning,0822.2,4.99,000.00,025.1,023.1,000.0,033.7,026.4,10.2,0000.0,0010.25,0002.95,0002.06
2024-02-01 21:30:00,SystemResetWarning,0822.3,5.00,000.00,025.1,023.5,000.0,033.6,026.6,10.0,0000.0,0009.75,0002.93,0002.07
2024-02-01 21:31:00,SystemResetWarning,0822.3,5.01,000.00,025.2,023.8,000.0,033.6,026.8,10.0,0000.0,0009.56,0002.88,0002.08
2024-02-01 21:32:00,SystemResetWarning,0822.3,5.00,000.00,025.3,024.1,000.0,033.6,027.0,10.1,0000.0,0009.66,0002.85,0002.07
2024-02-01 21:33:00,SystemResetWarning,0822.4,5.00,000.00,025.3,024.4,000.0,033.6,027.1,09.9,0000.0,0009.81,0002.83,0002.07
2024-02-01 21:34:00,SystemResetWarning,0822.4,4.99,000.00,025.4,024.6,000.0,033.6,027.2,09.9,0000.0,0008.88,0002.76,0002.09
2024-02-01 21:35:00,SystemResetWarning,0822.3,5.01,000.00,025.4,024.8,000.0,033.6,027.3,10.0,0000.0,0008.08,0002.79,0002.10
2024-02-01 21:36:00,SystemResetWarning,0822.3,5.01,000.00,025.5,025.0,000.0,033.6,027.4,09.9,0000.0,0007.64,0002.79,0002.11
2024-02-01 21:37:00,SystemResetWarning,0822.3,5.01,000.00,025.6,025.1,000.0,033.6,027.5,09.8,0000.0,0007.22,0002.78,0002.11
2024-02-01 21:38:00,SystemResetWarning,0822.3,5.00,000.00,025.6,025.2,000.0,033.7,027.5,09.9,0000.0,0006.18,0002.78,0002.13
2024-02-01 21:39:00,SystemResetWarning,0822.3,5.00,000.00,025.7,025.4,000.0,033.7,027.6,09.8,0000.0,0005.54,0002.80,0002.15
2024-02-01 21:40:00,SystemResetWarning,0822.4,4.99,000.00,025.8,025.4,000.0,033.7,027.7,09.8,0000.0,0005.94,0002.78,0002.16
2024-02-01 21:41:00,SystemResetWarning,0822.3,5.00,000.00,025.8,025.5,000.0,033.8,027.7,09.7,0000.0,0006.13,0002.76,0002.18
2024-02-01 21:42:00,SystemResetWarning,0822.2,5.00,000.00,025.7,023.8,000.0,033.9,026.9,09.8,0000.0,0007.80,0002.77,0002.18
2024-02-01 21:43:00,SystemResetWarning,0822.1,5.01,000.00,025.2,021.8,000.0,033.9,025.7,10.2,0000.0,0008.85,0002.88,0002.20
2024-02-01 21:44:00,SystemResetWarning,0822.1,5.01,000.00,024.9,021.7,000.0,033.9,025.5,10.2,0000.0,0008.84,0002.91,0002.21
2024-02-01 21:45:00,SystemResetWarning,0822.1,5.00,000.00,024.8,022.1,000.0,033.7,025.7,10.4,0000.0,0009.63,0002.95,0002.21
2024-02-01 21:46:00,SystemResetWarning,0822.2,5.00,000.00,024.8,022.6,000.0,033.6,026.1,10.5,0000.0,0010.48,0002.98,0002.19
2024-02-01 21:47:00,SystemResetWarning,0822.2,5.01,000.00,024.9,023.0,000.0,033.5,026.3,10.2,0000.0,0010.50,0002.97,0002.18
2024-02-01 21:48:00,SystemResetWarning,0822.2,4.99,000.00,024.9,023.5,000.0,033.4,026.5,10.1,0000.0,0010.46,0002.99,0002.18
2024-02-01 21:49:00,SystemResetWarning,0822.2,4.99,000.00,025.0,023.8,000.0,033.4,026.7,10.1,0000.0,0010.63,0003.00,0002.19
2024-02-01 21:50:00,SystemResetWarning,0822.2,4.99,000.00,025.0,024.1,000.0,033.4,026.8,10.2,0000.0,0010.84,0003.03,0002.24
2024-02-01 21:51:00,SystemResetWarning,0822.2,5.00,000.00,025.1,024.3,000.0,033.4,026.9,10.0,0000.0,0010.73,0003.02,0002.27
2024-02-01 21:52:00,SystemResetWarning,0822.2,5.01,000.00,025.2,024.5,000.0,033.4,027.1,09.9,0000.0,0010.79,0003.07,0002.28
2024-02-01 21:53:00,SystemResetWarning,0822.3,5.01,000.00,025.3,024.7,000.0,033.4,027.1,10.0,0000.0,0011.13,0003.13,0002.34
2024-02-01 21:54:00,SystemResetWarning,0822.2,5.00,000.00,025.3,024.8,000.0,033.4,027.2,09.8,0000.0,0009.71,0003.11,0002.35
2024-02-01 21:55:00,SystemResetWarning,0822.2,5.00,000.00,025.4,025.0,000.0,033.5,027.3,09.8,0000.0,0009.60,0003.12,0002.39
2024-02-01 21:56:00,SystemResetWarning,0822.2,4.99,000.00,025.5,025.1,000.0,033.5,027.4,09.7,0000.0,0009.04,0003.16,0002.44
2024-02-01 21:57:00,SystemResetWarning,0822.2,4.98,000.00,025.6,025.2,000.0,033.6,027.5,09.7,0000.0,0008.38,0003.22,0002.51
2024-02-01 21:58:00,SystemResetWarning,0822.2,5.00,000.00,025.6,025.3,000.0,033.6,027.5,09.6,0000.0,0008.85,0003.25,0002.62
2024-02-01 21:59:00,SystemResetWarning,0822.2,5.00,000.00,025.7,025.4,000.0,033.6,027.6,09.6,0000.0,0009.16,0003.32,0002.73
